Regional Weather Roundup
Issued by NWS

Home | Current Version | Previous Version | Text Only | Print | Product List | Glossary Off
Versions: 1 2 3 4 5 6 7 8 9 10 11 12 13 14 15 16 17 18 19 20 21 22 23 24 25 26 27

000
ASUS45 KSLC 121010
RWRUT

UTAH REGIONAL WEATHER ROUNDUP
NATIONAL WEATHER SERVICE SALT LAKE CITY UT
300 AM MST TUE DEC 12 2017

UTZ001>011-023>025-121100-

NORTHERN UTAH

CITY           SKY/WX    TMP DP  RH WIND       PRES   REMARKS
BRIGHAM CITY   CLOUDY    26  24  91 CALM      30.63R VSB 1/4
HILL AFB       FRZ DRZL  23  21  93 CALM      30.59R VSB 1/4
LOGAN          HAZE      18  12  77 CALM      30.61S VSB 1/4
OGDEN          FOG       24  23  96 N3        30.60S VSB 1/4
SALT LAKE CITY FOG       25  24  96 N3        30.62R VSB 1/4
TOOELE VALLEY  FOG       19  19 100 SW3       30.62S VSB 1/2
WENDOVER       PTCLDY    11   8  88 NE7       30.62S WCI   0
HEBER CITY       N/A     14  10  85 CALM      30.56S
WEST JORDAN    CLOUDY   N/A N/A N/A CALM      30.61R VSB 1/4

$$

UTZ011>015-024>027-121100-

CENTRAL/NORTHEAST UTAH

CITY           SKY/WX    TMP DP  RH WIND       PRES   REMARKS
PROVO AIRPORT  PTCLDY    17  14  88 CALM      30.61R
MOAB/CANYONLAN MOCLDY    20   0  41 CALM      30.51S
DELTA          CLOUDY    12   9  85 E3        30.59S
PRICE          PTCLDY    26   6  42 N7        30.51R WCI  18
ROOSEVELT      CLOUDY    18   9  68 W6        30.60R WCI   9
VERNAL         CLOUDY    17   7  64 W6        30.57S WCI   9

$$

UTZ013>016-019>022-027-121100-

SOUTHERN UTAH

CITY           SKY/WX    TMP DP  RH WIND       PRES   REMARKS
BRYCE CANYON   PTCLDY    17  -4  39 W13       30.56S WCI   4
CEDAR CITY     MOCLDY    16   6  65 NE3       30.53R
MILFORD        MOCLDY    12   5  73 CALM      30.56S
ST GEORGE      SUNNY     34  -1  22 CALM      30.48R
HANKSVILLE     MOCLDY    14  -4  44 CALM      30.56S
BLANDING         N/A     26   1  34 N7        30.57R WCI  19

$$

REGIONAL REPORTS     COLORADO/ARIZONA

CITY           SKY/WX    TMP DP  RH WIND       PRES   REMARKS
CRAIG, CO      CLOUDY    10   5  80 W3        30.56S
GRAND JUNCTION CLOUDY    27   3  35 SE13      30.53S WCI  16
RIFLE, CO      CLOUDY    21   6  52 S3        30.57R
MONTROSE, CO   CLOUDY    21   5  50 S10       30.57S WCI  10
CORTEZ, CO     CLOUDY    11  -1  58 NE3       30.51R
COLORADO CITY    N/A     14  -9  34 SE5       30.49S WCI   6
PAGE, AZ       MOCLDY    29  11  47 CALM      30.50R HAZE
GRAND CANYON   PTCLDY    16 -15  24 E3        30.50R
KINGMAN, AZ    PTCLDY    32  -3  22 E7        30.37S WCI  26
FLAGSTAFF, AZ  PTCLDY    18  -7  32 NE5       30.46S WCI  11

$$

REGIONAL REPORTS    NEVADA/IDAHO/WYOMING

CITY           SKY/WX    TMP DP  RH WIND       PRES   REMARKS
LAS VEGAS, NV  CLEAR     41   1  18 SW5       30.37R
ELY, NY        PTCLDY    11  -7  44 S13       30.57R WCI  -4
ELKO, NV       MOCLDY    10   7  87 CALM      30.58S
POCATELLO, ID  CLOUDY    14  11  87 CALM      30.58S
BURLEY, ID     FOG       20  17  88 MISG      30.59R VSB 1/4
FORT BRIDGER,    N/A     34  11  39 W7        30.56S WCI  27
EVANSTON, WY   CLOUDY    33  10  38 S3        30.56R
ROCK SPRINGS,  CLOUDY    26   8  46 CALM      30.52R

$$




USA.gov is the U.S. government's official web portal to all federal, state and local government web resources and services.